When you browse on this site, cookies collect data to enhance your experience and personalize the content and advertising you see.
Visit our Privacy Policy to learn more. By continuing to use the site, you agree to this use of cookies and data.
  • In Portugal
  • List of Countries
  • For 7 days
  • Water Temperature
  • Weather Map
  • Weather Widgets
  • user-avatar
    Login

    Hourly Weather Dodoma

    Today, 28 March, Saturday

    Time Temperature Precipitation Wind Pressure Humidity
    00:00 +21°C° 0.2 mm 1 mps 666 mmHg 91%
    01:00 +21°C° 0.2 mm 1 mps 665 mmHg 92%
    02:00 +18°C° 0 mm 0 mps 665 mmHg 92%
    03:00 +18°C° 0.1 mm 0 mps 665 mmHg 93%
    04:00 +18°C° 0.1 mm 0 mps 666 mmHg 94%
    05:00 +18°C° 0.1 mm 0 mps 666 mmHg 94%
    06:00 +19°C° 0 mm 0 mps 666 mmHg 91%
    07:00 +22°C° 0 mm 1 mps 667 mmHg 87%
    08:00 +23°C° 0 mm 1 mps 668 mmHg 82%
    09:00 +24°C° 0 mm 1 mps 668 mmHg 77%
    10:00 +26°C° 0 mm 2 mps 668 mmHg 71%
    11:00 +27°C° 0 mm 2 mps 667 mmHg 66%
    12:00 +27°C° 0 mm 2 mps 667 mmHg 66%
    13:00 +27°C° 0 mm 1 mps 666 mmHg 65%
    14:00 +27°C° 0 mm 1 mps 666 mmHg 64%
    15:00 +27°C° 0.1 mm 1 mps 665 mmHg 68%
    16:00 +24°C° 0.1 mm 0 mps 665 mmHg 72%
    17:00 +24°C° 0.1 mm 0 mps 665 mmHg 76%
    18:00 +23°C° 0.5 mm 0 mps 665 mmHg 79%
    19:00 +21°C° 0.5 mm 0 mps 665 mmHg 83%
    20:00 +20°C° 0.5 mm 0 mps 666 mmHg 86%
    21:00 +22°C° 1.5 mm 1 mps 666 mmHg 88%
    22:00 +22°C° 1.5 mm 1 mps 666 mmHg 91%
    23:00 +21°C° 1.5 mm 1 mps 666 mmHg 93%

    Tomorrow, 29 March, Sunday

    Time Temperature Precipitation Wind Pressure Humidity
    00:00 +21°C° 0.4 mm 1 mps 666 mmHg 94%
    01:00 +21°C° 0.4 mm 1 mps 665 mmHg 94%
    02:00 +20°C° 0.4 mm 1 mps 665 mmHg 95%
    03:00 +20°C° 0.4 mm 1 mps 665 mmHg 95%
    04:00 +20°C° 0.4 mm 1 mps 665 mmHg 95%
    05:00 +19°C° 0.4 mm 1 mps 665 mmHg 96%
    06:00 +21°C° 0.1 mm 1 mps 666 mmHg 93%
    07:00 +22°C° 0.1 mm 1 mps 667 mmHg 90%
    08:00 +23°C° 0.1 mm 1 mps 668 mmHg 87%
    09:00 +24°C° 0.8 mm 1 mps 668 mmHg 82%
    10:00 +26°C° 0.8 mm 1 mps 667 mmHg 77%
    11:00 +27°C° 0.8 mm 1 mps 667 mmHg 72%
    12:00 +28°C° 0.6 mm 1 mps 666 mmHg 69%
    13:00 +28°C° 0.6 mm 1 mps 666 mmHg 65%
    14:00 +29°C° 0.6 mm 1 mps 665 mmHg 62%
    15:00 +28°C° 0.1 mm 1 mps 665 mmHg 66%
    16:00 +27°C° 0.1 mm 1 mps 665 mmHg 71%
    17:00 +24°C° 0.1 mm 0 mps 664 mmHg 75%
    18:00 +23°C° 0.5 mm 0 mps 665 mmHg 78%
    19:00 +22°C° 0.5 mm 0 mps 665 mmHg 82%
    20:00 +20°C° 0.5 mm 0 mps 665 mmHg 86%
    21:00 +20°C° 0.8 mm 0 mps 665 mmHg 87%
    22:00 +22°C° 0.8 mm 1 mps 665 mmHg 89%
    23:00 +22°C° 0.8 mm 1 mps 665 mmHg 91%

    Day after tomorrow, 30 March, Monday

    Time Temperature Precipitation Wind Pressure Humidity
    00:00 +22°C° 0.3 mm 1 mps 665 mmHg 91%
    01:00 +21°C° 0.3 mm 1 mps 665 mmHg 92%
    02:00 +21°C° 0.3 mm 1 mps 665 mmHg 93%
    03:00 +21°C° 0 mm 1 mps 665 mmHg 93%
    04:00 +19°C° 0 mm 0 mps 664 mmHg 93%
    05:00 +19°C° 0 mm 0 mps 664 mmHg 92%
    06:00 +19°C° 0 mm 0 mps 665 mmHg 90%
    07:00 +20°C° 0 mm 0 mps 666 mmHg 88%
    08:00 +21°C° 0 mm 0 mps 667 mmHg 86%
    09:00 +22°C° 0 mm 0 mps 667 mmHg 80%
    10:00 +26°C° 0 mm 1 mps 666 mmHg 74%
    11:00 +27°C° 0 mm 1 mps 666 mmHg 68%
    12:00 +28°C° 0.1 mm 1 mps 666 mmHg 66%
    13:00 +29°C° 0.1 mm 1 mps 665 mmHg 64%
    14:00 +29°C° 0.1 mm 1 mps 665 mmHg 61%
    15:00 +28°C° 0.9 mm 1 mps 665 mmHg 68%
    16:00 +27°C° 0.9 mm 1 mps 664 mmHg 75%
    17:00 +26°C° 0.9 mm 1 mps 664 mmHg 82%
    18:00 +25°C° 1.7 mm 1 mps 664 mmHg 84%
    19:00 +24°C° 1.7 mm 1 mps 665 mmHg 86%
    20:00 +23°C° 1.7 mm 1 mps 665 mmHg 87%
    21:00 +22°C° 0.7 mm 1 mps 665 mmHg 88%
    22:00 +22°C° 0.7 mm 1 mps 665 mmHg 88%
    23:00 +22°C° 0.7 mm 1 mps 665 mmHg 88%

    31 March, Tuesday

    Time Temperature Precipitation Wind Pressure Humidity
    00:00 +22°C° 0.2 mm 1 mps 665 mmHg 89%
    01:00 +21°C° 0.2 mm 1 mps 665 mmHg 90%
    02:00 +21°C° 0.2 mm 1 mps 665 mmHg 91%
    03:00 +21°C° 0.1 mm 1 mps 665 mmHg 91%
    04:00 +19°C° 0.1 mm 0 mps 665 mmHg 91%
    05:00 +19°C° 0.1 mm 0 mps 665 mmHg 92%
    06:00 +19°C° 0 mm 0 mps 666 mmHg 91%
    07:00 +20°C° 0 mm 0 mps 666 mmHg 90%
    08:00 +20°C° 0 mm 0 mps 667 mmHg 89%
    09:00 +24°C° 0.4 mm 1 mps 667 mmHg 83%
    10:00 +26°C° 0.4 mm 1 mps 667 mmHg 78%
    11:00 +27°C° 0.4 mm 1 mps 667 mmHg 72%
    12:00 +28°C° 0.4 mm 1 mps 666 mmHg 69%
    13:00 +28°C° 0.4 mm 1 mps 666 mmHg 66%
    14:00 +29°C° 0.4 mm 1 mps 665 mmHg 63%
    15:00 +28°C° 0.5 mm 1 mps 665 mmHg 69%
    16:00 +27°C° 0.5 mm 1 mps 665 mmHg 76%
    17:00 +26°C° 0.5 mm 1 mps 665 mmHg 82%
    18:00 +25°C° 0.6 mm 1 mps 665 mmHg 84%
    19:00 +24°C° 0.6 mm 2 mps 665 mmHg 87%
    20:00 +23°C° 0.6 mm 2 mps 666 mmHg 89%
    21:00 +21°C° 0.2 mm 2 mps 666 mmHg 90%
    22:00 +21°C° 0.2 mm 2 mps 665 mmHg 92%
    23:00 +21°C° 0.2 mm 2 mps 665 mmHg 93%

    1 April, Wednesday

    Time Temperature Precipitation Wind Pressure Humidity
    00:00 +20°C° 0.3 mm 2 mps 665 mmHg 94%
    01:00 +20°C° 0.3 mm 2 mps 665 mmHg 95%
    02:00 +20°C° 0.3 mm 2 mps 665 mmHg 96%
    03:00 +21°C° 0.2 mm 1 mps 665 mmHg 96%
    04:00 +20°C° 0.2 mm 1 mps 665 mmHg 97%
    05:00 +20°C° 0.2 mm 1 mps 665 mmHg 97%
    06:00 +21°C° 0 mm 1 mps 666 mmHg 93%
    07:00 +23°C° 0 mm 1 mps 667 mmHg 90%
    08:00 +24°C° 0 mm 1 mps 667 mmHg 86%
    09:00 +25°C° 0.3 mm 1 mps 667 mmHg 79%
    10:00 +27°C° 0.3 mm 1 mps 667 mmHg 72%
    11:00 +29°C° 0.3 mm 1 mps 667 mmHg 65%
    12:00 +29°C° 0.4 mm 1 mps 666 mmHg 64%
    13:00 +29°C° 0.4 mm 1 mps 666 mmHg 64%
    14:00 +29°C° 0.4 mm 1 mps 665 mmHg 63%
    15:00 +28°C° 0.3 mm 1 mps 665 mmHg 68%
    16:00 +28°C° 0.3 mm 1 mps 665 mmHg 73%
    17:00 +27°C° 0.3 mm 1 mps 664 mmHg 78%
    18:00 +25°C° 0.5 mm 1 mps 664 mmHg 82%
    19:00 +24°C° 0.5 mm 2 mps 665 mmHg 86%
    20:00 +23°C° 0.5 mm 2 mps 665 mmHg 90%
    21:00 +21°C° 0 mm 2 mps 665 mmHg 90%
    22:00 +21°C° 0 mm 2 mps 665 mmHg 91%
    23:00 +21°C° 0 mm 2 mps 665 mmHg 92%

    2 April, Thursday

    Time Temperature Precipitation Wind Pressure Humidity
    00:00 +21°C° 0 mm 2 mps 664 mmHg 93%
    01:00 +20°C° 0 mm 2 mps 664 mmHg 93%
    02:00 +20°C° 0 mm 2 mps 664 mmHg 94%
    03:00 +20°C° 0.1 mm 2 mps 664 mmHg 95%
    04:00 +20°C° 0.1 mm 2 mps 664 mmHg 96%
    05:00 +19°C° 0.1 mm 2 mps 664 mmHg 97%
    06:00 +21°C° 0.1 mm 2 mps 665 mmHg 93%
    07:00 +23°C° 0.1 mm 2 mps 666 mmHg 89%
    08:00 +24°C° 0.1 mm 2 mps 666 mmHg 85%
    09:00 +25°C° 1.2 mm 2 mps 666 mmHg 81%
    10:00 +26°C° 1.2 mm 2 mps 666 mmHg 77%
    11:00 +28°C° 1.2 mm 2 mps 666 mmHg 73%
    12:00 +28°C° 0.4 mm 2 mps 665 mmHg 69%
    13:00 +29°C° 0.4 mm 2 mps 664 mmHg 65%
    14:00 +30°C° 0.4 mm 1 mps 664 mmHg 61%
    15:00 +28°C° 1 mm 1 mps 664 mmHg 68%
    16:00 +27°C° 1 mm 2 mps 664 mmHg 75%
    17:00 +26°C° 1 mm 2 mps 663 mmHg 82%
    18:00 +25°C° 0.8 mm 2 mps 664 mmHg 84%
    19:00 +24°C° 0.8 mm 2 mps 664 mmHg 87%
    20:00 +23°C° 0.8 mm 2 mps 664 mmHg 90%
    21:00 +21°C° 0.1 mm 2 mps 664 mmHg 90%
    22:00 +21°C° 0.1 mm 2 mps 665 mmHg 90%
    23:00 +22°C° 0.1 mm 1 mps 665 mmHg 90%
    Show more